Location: Bothwell
(42.3833°S, 147.0000°E)
Time: 22:31:57
(UTC+11:00)

CUTE-I - Pass Details

Date: 30 September 2022
Orbit: 810 x 823 km, 98.7° (Epoch: 30 November)

Event Time Altitude Azimuth Distance (km) Brightness Sun altitude
Rises 20:18:48 0° 185° (S) 3,393 ? -22.4°
Reaches altitude 10° 20:22:22 10° 209° (SSW) 2,454 ? -23.0°
Maximum altitude 20:24:57 14° 237° (WSW) 2,195 ? -23.4°
Drops below altitude 10° 20:27:32 10° 266° (W) 2,443 ? -23.8°
Sets 20:31:05 0° 291° (WNW) 3,368 ? -24.4°
